Silver City, NM

4:05 AM MST on November 15, 2019 (GMT -0700)
Grant County

Weather History for KSVC - October, 2019

Change the Weather History Date:

Tuesday, October 22, 2019

  Actual Average (WUND) Record (WUND)
Temperature  
Mean Temperature 56 °F -  
Max Temperature 71 °F - - (-1)
Min Temperature 41 °F - - (-1)
Degree Days  
Heating Degree Days 8    
Growing Degree Days 6 (Base 50)    
Moisture  
Dew Point 17 °F    
Average Humidity 24    
Maximum Humidity 45    
Minimum Humidity 14    
Precipitation  
Precipitation 0.00 in - - ()
Sea Level Pressure  
Sea Level Pressure 30.24 in    
Wind  
Wind Speed 7 mph (West)    
Max Wind Speed 14 mph    
Max Gust Speed -    
Visibility 10 miles    
Events      
Averages and records for this station are not official NWS values.
T = Trace of Precipitation, MM = Missing Value Source: NWS Daily Summary

Daily Weather History Graph

Daily Weather History Graph

Search for Another Location

Airport or City:

Astronomy

Oct. 22, 2019 Rise Set
Actual Time 7:21 AM MDT 6:31 PM MDT
Civil Twilight 6:56 AM MDT 6:56 PM MDT
Nautical Twilight 6:28 AM MDT 7:25 PM MDT
Astronomical Twilight 5:59 AM MDT 7:54 PM MDT
Moon 1:02 AM MDT (10/22) 3:18 PM MDT (10/22)
Length of Visible Light 12h 00m
Length of Day
11h 10m
Last Quarter, 36% of the Moon is Illuminated
Oct 22
Last Quarter
Oct 27
New
Nov 4
First Quarter
Nov 12
Full
Nov 19
Last Quarter

Hourly Weather History & Observations

Time (MDT) Temp. Windchill Dew Point Humidity Pressure Visibility Wind Dir Wind Speed Gust Speed Precip Events Conditions
12:15 AM 42.6 °F 37.2 °F 15.3 °F 33% 30.23 in 10.0 mi NW 9.2 mph - N/A   Clear
12:35 AM 49.1 °F - 13.3 °F 24% 30.24 in 10.0 mi NNE 4.6 mph - N/A   Clear
12:55 AM 48.6 °F - 13.3 °F 24% 30.25 in 10.0 mi NNE 5.8 mph - N/A   Clear
1:15 AM 47.7 °F - 13.1 °F 25% 30.25 in 10.0 mi NNW 6.9 mph - N/A   Clear
1:35 AM 45.1 °F 40.8 °F 13.8 °F 28% 30.25 in 10.0 mi North 8.1 mph - N/A   Clear
1:55 AM 50.7 °F - 12.2 °F 21% 30.25 in 10.0 mi North 10.4 mph - N/A   Clear
2:15 AM 50.9 °F - 12.2 °F 21% 30.25 in 10.0 mi North 11.5 mph - N/A   Clear
2:35 AM 46.6 °F - 13.1 °F 26% 30.25 in 10.0 mi North 9.2 mph - N/A   Clear
2:55 AM 51.6 °F - 12.0 °F 21% 30.25 in 10.0 mi NNW 13.8 mph - N/A   Clear
3:15 AM 50.2 °F - 12.0 °F 22% 30.25 in 10.0 mi NNW 12.7 mph - N/A   Clear
3:35 AM 48.2 °F - 12.4 °F 24% 30.25 in 10.0 mi North 9.2 mph - N/A   Clear
3:55 AM 44.1 °F 39.0 °F 13.1 °F 29% 30.25 in 10.0 mi NW 9.2 mph - N/A   Clear
4:35 AM 44.6 °F 39.2 °F 13.6 °F 29% 30.25 in 10.0 mi WNW 10.4 mph - N/A   Clear
4:55 AM 47.5 °F - 12.9 °F 25% 30.25 in 10.0 mi WNW 10.4 mph - N/A   Clear
5:15 AM 48.2 °F - 12.6 °F 24% 30.25 in 10.0 mi WNW 11.5 mph - N/A   Clear
5:35 AM 47.5 °F - 12.7 °F 25% 30.26 in 10.0 mi NW 12.7 mph - N/A   Clear
5:55 AM 46.9 °F - 13.1 °F 26% 30.26 in 10.0 mi NW 10.4 mph - N/A   Clear
6:15 AM 46.4 °F 41.5 °F 13.8 °F 27% 30.27 in 10.0 mi NW 10.4 mph - N/A   Clear
6:35 AM 45.7 °F 42.7 °F 14.0 °F 28% 30.27 in 10.0 mi NNW 5.8 mph - N/A   Clear
6:55 AM 44.1 °F 41.5 °F 14.4 °F 30% 30.28 in 10.0 mi North 4.6 mph - N/A   Clear
7:15 AM 47.3 °F - 13.6 °F 26% 30.28 in 10.0 mi West 5.8 mph - N/A   Clear
7:35 AM 45.7 °F 43.4 °F 14.0 °F 28% 30.29 in 10.0 mi West 4.6 mph - N/A   Clear
7:55 AM 43.9 °F 42.3 °F 16.0 °F 33% 30.29 in 10.0 mi West 3.5 mph - N/A   Clear
8:15 AM 45.3 °F - 17.2 °F 33% 30.30 in 10.0 mi Calm Calm - N/A   Clear
8:35 AM 48.2 °F - 17.2 °F 29% 30.31 in 10.0 mi Calm Calm - N/A   Clear
8:55 AM 52.5 °F - 16.2 °F 24% 30.32 in 10.0 mi Calm Calm - N/A   Clear
9:15 AM 55.4 °F - 17.2 °F 22% 30.32 in 10.0 mi Calm Calm - N/A   Clear
9:35 AM 56.1 °F - 18.7 °F 23% 30.33 in 10.0 mi Calm Calm - N/A   Clear
9:55 AM 59.4 °F - 18.1 °F 20% 30.33 in 10.0 mi SSW 3.5 mph - N/A   Clear
10:15 AM 61.2 °F - 16.7 °F 18% 30.32 in 10.0 mi SW 4.6 mph - N/A   Clear
10:35 AM 62.6 °F - 17.1 °F 17% 30.32 in 10.0 mi South 6.9 mph - N/A   Clear
10:55 AM 63.7 °F - 19.2 °F 18% 30.32 in 10.0 mi South 6.9 mph - N/A   Clear
11:15 AM 64.2 °F - 17.4 °F 16% 30.32 in 10.0 mi SSW 5.8 mph - N/A   Clear
11:35 AM 65.5 °F - 17.8 °F 16% 30.31 in 10.0 mi South 5.8 mph - N/A   Clear
11:55 AM 65.5 °F - 17.2 °F 16% 30.31 in 10.0 mi South 5.8 mph - N/A   Clear
12:15 PM 66.6 °F - 17.8 °F 15% 30.30 in 10.0 mi SSW 8.1 mph - N/A   Clear
12:35 PM 66.9 °F - 17.6 °F 15% 30.30 in 10.0 mi South 4.6 mph - N/A   Clear
12:55 PM 67.8 °F - 18.1 °F 15% 30.28 in 10.0 mi SW 9.2 mph - N/A   Clear
1:15 PM 68.0 °F - 17.2 °F 14% 30.27 in 10.0 mi SSW 8.1 mph - N/A   Clear
1:35 PM 68.9 °F - 18.1 °F 14% 30.26 in 10.0 mi SSE 8.1 mph - N/A   Clear
1:55 PM 68.9 °F - 18.0 °F 14% 30.24 in 10.0 mi Calm Calm - N/A   Clear
2:15 PM 69.1 °F - 18.0 °F 14% 30.23 in 10.0 mi South 8.1 mph - N/A   Clear
2:35 PM 70.3 °F - 18.7 °F 14% 30.23 in 10.0 mi South 9.2 mph - N/A   Clear
2:55 PM 70.3 °F - 18.5 °F 14% 30.21 in 10.0 mi SE 5.8 mph - N/A   Clear
3:15 PM 69.8 °F - 18.3 °F 14% 30.21 in 10.0 mi South 6.9 mph - N/A   Clear
3:35 PM 70.5 °F - 18.5 °F 14% 30.20 in 10.0 mi South 5.8 mph - N/A   Clear
3:55 PM 71.2 °F - 19.4 °F 14% 30.20 in 10.0 mi South 8.1 mph - N/A   Clear
4:15 PM 70.7 °F - 19.0 °F 14% 30.20 in 10.0 mi SSW 5.8 mph - N/A   Clear
4:35 PM 70.7 °F - 19.4 °F 14% 30.19 in 10.0 mi South 10.4 mph - N/A   Clear
4:55 PM 70.5 °F - 19.8 °F 15% 30.19 in 10.0 mi SSW 8.1 mph - N/A   Clear
5:15 PM 69.8 °F - 19.6 °F 15% 30.18 in 10.0 mi South 10.4 mph - N/A   Clear
5:35 PM 68.9 °F - 19.4 °F 15% 30.18 in 10.0 mi SSW 6.9 mph - N/A   Clear
5:55 PM 67.5 °F - 19.4 °F 16% 30.18 in 10.0 mi SSW 8.1 mph - N/A   Clear
6:15 PM 65.7 °F - 19.4 °F 17% 30.17 in 10.0 mi South 8.1 mph - N/A   Clear
6:35 PM 61.2 °F - 20.3 °F 21% 30.18 in 10.0 mi South 4.6 mph - N/A   Clear
6:55 PM 59.5 °F - 19.9 °F 22% 30.18 in 10.0 mi South 4.6 mph - N/A   Clear
7:15 PM 59.9 °F - 19.8 °F 21% 30.18 in 10.0 mi Calm Calm - N/A   Clear
7:35 PM 57.0 °F - 19.4 °F 23% 30.18 in 10.0 mi Calm Calm - N/A   Clear
7:55 PM 50.7 °F - 20.1 °F 30% 30.19 in 10.0 mi Calm Calm - N/A   Clear
8:15 PM 46.9 °F - 19.4 °F 34% 30.19 in 10.0 mi Calm Calm - N/A   Clear
8:35 PM 43.7 °F 40.3 °F 20.3 °F 39% 30.19 in 10.0 mi North 5.8 mph - N/A   Clear
8:55 PM 44.1 °F 40.8 °F 20.8 °F 40% 30.19 in 10.0 mi NNE 5.8 mph - N/A   Clear
9:15 PM 46.8 °F - 21.7 °F 37% 30.19 in 10.0 mi North 6.9 mph - N/A   Clear
9:35 PM 46.0 °F 41.4 °F 21.7 °F 38% 30.19 in 10.0 mi North 9.2 mph - N/A   Clear
9:55 PM 45.3 °F 41.1 °F 21.9 °F 40% 30.19 in 10.0 mi North 8.1 mph - N/A   Clear
10:15 PM 45.9 °F 41.7 °F 22.1 °F 39% 30.19 in 10.0 mi North 8.1 mph - N/A   Clear
10:35 PM 45.5 °F 41.8 °F 22.1 °F 40% 30.19 in 10.0 mi North 6.9 mph - N/A   Clear
10:55 PM 44.1 °F 40.1 °F 21.6 °F 41% 30.19 in 10.0 mi NNW 6.9 mph - N/A   Clear
11:15 PM 43.9 °F 39.9 °F 21.6 °F 41% 30.19 in 10.0 mi North 6.9 mph - N/A   Clear
11:35 PM 42.3 °F 37.9 °F 21.4 °F 43% 30.19 in 10.0 mi NNW 6.9 mph - N/A   Clear
11:55 PM 41.2 °F 37.3 °F 21.2 °F 45% 30.18 in 10.0 mi NNW 5.8 mph - N/A   Clear